User: anonymous   Login
Location: Emory University Observatory
(33.7903°N, 84.3267°W)
Time: 05:35:49
(UTC-04:00)
Language:

Hubble Space Telescope - Orbit

View from above orbital plane
View from above orbital plane
View from above satellite
View from above satellite

Ground track
Ground track

The orbit data is extracted from the following two-line orbital elements,

1 20580U 90037B   17296.92849403 +.00000779 +00000-0 +37026-4 0  9993
2 20580 028.4693 236.7560 0002940 117.2941 294.5008 15.08896263309668
Epoch (UTC): 23 October 2017 22:17:01
Eccentricity: 0.0002940
inclination: 28.4693°
perigee height: 537 km
apogee height: 541 km
right ascension of ascending node: 236.7560°
argument of perigee: 117.2941°
revolutions per day: 15.08896263
mean anomaly at epoch: 294.5008°
orbit number at epoch: 30966

The dashed part of the orbit path shows where the satellite is in the earth's shadow,  

DLR